x

Yucatan Basin - 120 Nm Ese Of Cozumel, Mx (42056) Wave Buoy

11:50 - Fri 28th Aug 2015 All times are CDT. -5 hours from GMT.

  • Sig Wave height 1.6ft
  • Swell Direction
  • Peak Period 7s
  • Average Period 4s
  • Wind
    7mph, 9mph gusts
  • Sea Temp 87°f
  • Air Temp 86°f
  • Sea Pressure 1014mb
  •  Yucatan Basin - 120 Nm Ese Of Cozumel, Mx
  •  Yucatan Basin - 120 Nm Ese Of Cozumel, Mx

More Historic Weather Station data

Upgrade to MSW Pro to gain access to the past 30 days of data for over 8000 Wavebouys and Weather Stations around the globe.

Join Pro

Comparision Forecast

View Surf forecast
   
ven. 08/28 11:50 1.6ft 7s 4s 7 9 mph 1014mb 87f 86f
10:50 1.6ft 3s 4s 11
mph
1014.1mb 87f 86f
9:50 1.6ft 7s 4s 11
mph
1014.1mb 87f 86f
8:50 1.6ft 7s 4s 11 13 mph 1013.5mb 86f 86f
7:50 1.6ft 7s 4s 11
mph
1013mb 86f 86f
6:50 1.6ft 7s 4s 11 13 mph 1012.7mb 86f 85f
5:50 1.6ft 7s 4s 11 13 mph 1012.5mb 86f 86f
4:50 1.6ft 6s 4s 11 13 mph 1011.8mb 87f 85f
3:50 1.6ft 6s 4s 9 11 mph 1012mb 87f 85f
2:50 1.3ft 7s 4s 11
mph
1012.6mb 87f 86f
1:50 1.6ft 6s 4s 11 13 mph 1013.5mb 87f 86f
12:50 1.3ft 6s 5s 9 11 mph 1014.4mb 87f 86f
jeu. 08/27 11:50 1.3ft 7s 5s 9 11 mph 1014.9mb 86f 86f
10:50 1.3ft 7s 5s 9 11 mph 1014.8mb 87f 86f
9:50 1.3ft 7s 5s 7 9 mph 1014.8mb 87f 86f
8:50 1ft 7s 5s 7 9 mph 1014mb 87f 86f
7:50 1.3ft 6s 5s 7 9 mph 1013.2mb 87f 86f
6:50 1.3ft 7s 5s 4 9 mph 1012.6mb 88f 86f
5:50 1.3ft 6s 5s 4 7 mph 1012.3mb 89f 86f
4:50 1ft 7s 5s 4
mph
1012.6mb 88f 86f
3:50 1ft 7s 5s  -  2 mph 1012.6mb 89f 86f
2:50 1ft 7s 5s  -  2 mph 1013.4mb 89f 86f
1:50 1ft 6s 5s 4
mph
1014.1mb 88f 86f
12:50 1ft 7s 5s 4 7 mph 1014.6mb 88f 86f
11:50 1ft 7s 5s 4 7 mph 1015.1mb 88f 86f
10:50 1ft 7s 5s 4 7 mph 1015.1mb 87f 85f
9:50 1ft 7s 5s 7 9 mph 1014.7mb 87f 85f
8:50 1ft 6s 5s 4 7 mph 1014.2mb 87f 86f
7:50 1ft 7s 5s 2 4 mph 1014mb 87f 85f
6:50 1ft 6s 5s 2 4 mph 1013.2mb 87f 85f
5:50 1ft 6s 5s 4
mph
1013.3mb 87f 85f
4:50 1ft 7s 5s 4
mph
1012.6mb 87f 85f
3:50 1ft 7s 5s 4 7 mph 1012.6mb 87f 85f
2:50 1ft 7s 5s 9
mph
1012.8mb 87f 85f
1:50 1ft 7s 5s 7 9 mph 1013.6mb 87f 85f
12:50 1ft 6s 5s 4 7 mph 1014mb 87f 85f
mer. 08/26 11:50 1ft 6s 5s 4 7 mph 1015mb 87f 86f
10:50 1ft 6s 6s 4
mph
1015.3mb 87f 86f
9:50 1ft 6s 6s 2 4 mph 1014.6mb 88f 86f
8:50 1ft 6s 6s 4 7 mph 1014.5mb 88f 86f
7:50 1.3ft 7s 6s 2
mph
1014.1mb 89f 86f
6:50 1ft 7s 6s  -  2 mph 1013.3mb 90f 86f
5:50 1.3ft 7s 6s 2 4 mph 1013mb 92f 86f
4:50 1ft 6s 6s  -  2 mph 1013.1mb 92f 88f
3:50 1.3ft 7s 6s 2 4 mph 1013.2mb 92f 87f
2:50 1.3ft 7s 6s 2 4 mph 1014mb 92f 86f
1:50 1.3ft 7s 6s  -  2 mph 1014.5mb 91f 87f
12:50 1.3ft 7s 6s  -  2 mph 1014.8mb 90f 85f
11:50 1ft 7s 5s  -  2 mph 1015.3mb 89f 85f
10:50 1.3ft 7s 6s 2 4 mph 1015mb 88f 86f
9:50 1ft 7s 5s  -  2 mph 1014.7mb 87f 86f
8:50 1.3ft 7s 6s  -  2 mph 1014.4mb 87f 86f
7:50 1.3ft 7s 6s  -  mph 1013.7mb 87f 87f
6:50 1.3ft 7s 6s 2
mph
1013mb 87f 85f
5:50 1.3ft 7s 6s  -  2 mph 1012.6mb 86f 84f
4:50 1.3ft 7s 5s 2
mph
1012.4mb 87f 85f
3:50 1.3ft 7s 5s  -  mph 1012.2mb 87f 85f
2:50 1.3ft 7s 6s 2 4 mph 1012.4mb 87f 85f
1:50 1.3ft 7s 6s 2 4 mph 1013.1mb 87f 85f
12:50 1.3ft 7s 6s 2 4 mph 1013.6mb 87f 85f
mar. 08/25 11:50 1.3ft 8s 6s 4 7 mph 1014mb 87f 85f
10:50 1.3ft 7s 6s 7 9 mph 1013.7mb 88f 85f
9:50 1.3ft 7s 6s 7 9 mph 1013.4mb 88f 86f
8:50 1.3ft 7s 6s 7 9 mph 1013.1mb 88f 86f
7:50 1.3ft 7s 5s 2 4 mph 1012.6mb 88f 86f
6:50 1.3ft 8s 5s 2
mph
1011.8mb 89f 86f
5:50 1.3ft 8s 5s 2 4 mph 1011.9mb 89f 86f
4:50 1ft 7s 5s 2 4 mph 1011.8mb 90f 86f
3:50 1ft 7s 4s 2 4 mph 1011.9mb 90f 86f
2:50 1ft 7s 5s 2 7 mph 1012.2mb 92f 86f
1:50 1ft 8s 5s 2 4 mph 1012.6mb 91f 86f
12:50 1ft 8s 5s 2 4 mph 1013.3mb 89f 85f
11:50 1ft 7s 5s 4
mph
1014mb 88f 85f
10:50 1ft 7s 5s 2 4 mph 1014.2mb 87f 85f
9:50 1ft 7s 5s 4 7 mph 1013.8mb 87f 85f
8:50 1ft 7s 5s 2 4 mph 1013.3mb 86f 85f
7:50 1ft 8s 5s  -  2 mph 1013.2mb 86f 85f
6:50 1.3ft 8s 5s 2
mph
1012.4mb 86f 84f
5:50 1.3ft 8s 5s 4
mph
1011.8mb 86f 84f
4:50 1.3ft 7s 5s 4 7 mph 1011.5mb 86f 84f
3:50 1.3ft 8s 5s 2 4 mph 1011.5mb 86f 84f
2:50 1.3ft 8s 5s 4
mph
1011.9mb 86f 84f
1:50 1.3ft 7s 5s 4
mph
1012mb 86f 84f
12:50 1.3ft 8s 5s 2 4 mph 1012.7mb 86f 84f
lun. 08/24 11:50 1.3ft 8s 5s 4
mph
1013.2mb 86f 85f
10:50 1.3ft 7s 5s 7
mph
1012.8mb 86f 85f
9:50 1.3ft 7s 4s 7
mph
1012.5mb 86f 85f
8:50 1.3ft 8s 4s 7 9 mph 1012.6mb 86f 85f
7:50 1.3ft 8s 4s 7 9 mph 1012.2mb 87f 85f
6:50 1.3ft 7s 4s 7 9 mph 1011.7mb 87f 85f
5:50 1.3ft 6s 5s 4 7 mph 1011mb 87f 85f